TimeEDT,TemperatureF,Dew PointF,Humidity,Sea Level PressureIn,VisibilityMPH,Wind Direction,Wind SpeedMPH,Gust SpeedMPH,PrecipitationIn,Events,Conditions,WindDirDegrees,DateUTC
12:15 AM,33.8,23.0,65,30.15,10.0,Calm,Calm,-,N/A,,Scattered Clouds,0,2013-04-06 04:15:00
12:34 AM,35.6,23.0,60,30.15,10.0,Calm,Calm,-,N/A,,Scattered Clouds,0,2013-04-06 04:34:00
12:54 AM,33.8,24.8,70,30.16,10.0,Calm,Calm,-,N/A,,Scattered Clouds,0,2013-04-06 04:54:00
1:15 AM,33.8,24.8,70,30.15,10.0,Calm,Calm,-,N/A,,Mostly Cloudy,0,2013-04-06 05:15:00
1:35 AM,33.8,24.8,70,30.16,10.0,East,3.5,-,N/A,,Overcast,90,2013-04-06 05:35:00
1:54 AM,35.6,24.8,65,30.15,10.0,East,4.6,-,N/A,,Overcast,90,2013-04-06 05:54:00
2:15 AM,35.6,23.0,60,30.15,10.0,ESE,8.1,-,N/A,,Overcast,110,2013-04-06 06:15:00
2:34 AM,37.4,21.2,52,30.16,10.0,SE,8.1,-,N/A,,Overcast,130,2013-04-06 06:34:00
2:54 AM,37.4,21.2,52,30.15,10.0,ESE,6.9,-,N/A,,Scattered Clouds,110,2013-04-06 06:54:00
3:15 AM,35.6,21.2,56,30.15,10.0,ESE,9.2,16.1,N/A,,Scattered Clouds,120,2013-04-06 07:15:00
3:34 AM,35.6,21.2,56,30.15,10.0,ESE,6.9,-,N/A,,Scattered Clouds,120,2013-04-06 07:34:00
3:55 AM,35.6,21.2,56,30.15,10.0,SE,8.1,-,N/A,,Scattered Clouds,130,2013-04-06 07:55:00
4:14 AM,35.6,23.0,60,30.16,10.0,SE,8.1,-,N/A,,Mostly Cloudy,130,2013-04-06 08:14:00
4:34 AM,35.6,23.0,60,30.15,10.0,SE,6.9,-,N/A,,Scattered Clouds,130,2013-04-06 08:34:00
4:55 AM,35.6,23.0,60,30.16,10.0,SE,5.8,-,N/A,,Mostly Cloudy,140,2013-04-06 08:55:00
5:15 AM,35.6,23.0,60,30.15,10.0,SE,9.2,-,N/A,,Mostly Cloudy,130,2013-04-06 09:15:00
5:35 AM,35.6,23.0,60,30.15,10.0,SE,12.7,16.1,N/A,,Overcast,130,2013-04-06 09:35:00
5:55 AM,35.6,23.0,60,30.14,10.0,SE,12.7,18.4,N/A,,Scattered Clouds,130,2013-04-06 09:55:00
6:14 AM,35.6,23.0,60,30.14,10.0,SE,9.2,-,N/A,,Mostly Cloudy,130,2013-04-06 10:14:00
6:35 AM,35.6,23.0,60,30.15,10.0,SE,10.4,-,N/A,,Overcast,140,2013-04-06 10:35:00
6:55 AM,35.6,23.0,60,30.14,10.0,SE,11.5,-,N/A,,Mostly Cloudy,140,2013-04-06 10:55:00
7:14 AM,35.6,23.0,60,30.15,10.0,SE,12.7,18.4,N/A,,Overcast,140,2013-04-06 11:14:00
7:35 AM,35.6,21.2,56,30.14,10.0,SE,13.8,-,N/A,,Mostly Cloudy,140,2013-04-06 11:35:00
8:14 AM,35.6,21.2,56,30.16,10.0,SE,13.8,20.7,N/A,,Scattered Clouds,140,2013-04-06 12:14:00
8:35 AM,37.4,21.2,52,30.15,10.0,SE,15.0,19.6,N/A,,Clear,140,2013-04-06 12:35:00
8:55 AM,37.4,21.2,52,30.14,10.0,SE,13.8,21.9,N/A,,Clear,140,2013-04-06 12:55:00
9:14 AM,37.4,21.2,52,30.14,10.0,SSE,15.0,-,N/A,,Scattered Clouds,150,2013-04-06 13:14:00
9:35 AM,39.2,23.0,52,30.14,10.0,SSE,13.8,18.4,N/A,,Scattered Clouds,150,2013-04-06 13:35:00
9:55 AM,39.2,21.2,49,30.14,10.0,SSE,15.0,-,N/A,,Clear,150,2013-04-06 13:55:00
10:14 AM,41.0,21.2,45,30.13,10.0,SSE,16.1,25.3,N/A,,Clear,160,2013-04-06 14:14:00
10:35 AM,42.8,21.2,42,30.12,10.0,SSE,18.4,24.2,N/A,,Clear,150,2013-04-06 14:35:00
10:55 AM,42.8,23.0,46,30.11,10.0,SSE,16.1,23.0,N/A,,Clear,150,2013-04-06 14:55:00
11:14 AM,44.6,23.0,43,30.11,10.0,SSE,19.6,24.2,N/A,,Clear,160,2013-04-06 15:14:00
11:35 AM,46.4,24.8,43,30.10,10.0,SSE,17.3,26.5,N/A,,Clear,160,2013-04-06 15:35:00
11:54 AM,46.4,24.8,43,30.08,10.0,SSE,18.4,26.5,N/A,,Clear,160,2013-04-06 15:54:00
12:15 PM,48.2,24.8,40,30.07,10.0,SSE,19.6,25.3,N/A,,Clear,150,2013-04-06 16:15:00
12:35 PM,48.2,23.0,37,30.06,10.0,SSE,19.6,24.2,N/A,,Clear,160,2013-04-06 16:35:00
12:54 PM,50.0,24.8,37,30.05,10.0,SSE,18.4,24.2,N/A,,Clear,160,2013-04-06 16:54:00
1:15 PM,51.8,24.8,35,30.03,10.0,South,18.4,26.5,N/A,,Clear,180,2013-04-06 17:15:00
1:34 PM,53.6,24.8,33,30.03,10.0,SSE,18.4,27.6,N/A,,Clear,160,2013-04-06 17:34:00
1:55 PM,53.6,26.6,35,30.01,10.0,SSE,21.9,26.5,N/A,,Clear,160,2013-04-06 17:55:00
2:15 PM,55.4,26.6,33,30.00,10.0,SSE,19.6,31.1,N/A,,Clear,160,2013-04-06 18:15:00
2:34 PM,55.4,26.6,33,29.98,10.0,SSE,21.9,32.2,N/A,,Clear,160,2013-04-06 18:34:00
2:55 PM,57.2,26.6,31,29.96,10.0,South,20.7,26.5,N/A,,Clear,180,2013-04-06 18:55:00
3:15 PM,57.2,28.4,33,29.93,10.0,SSE,21.9,25.3,N/A,,Clear,160,2013-04-06 19:15:00
3:34 PM,57.2,28.4,33,29.92,10.0,South,20.7,26.5,N/A,,Clear,170,2013-04-06 19:34:00
3:55 PM,57.2,28.4,33,29.90,10.0,South,20.7,29.9,N/A,,Clear,170,2013-04-06 19:55:00
4:15 PM,60.8,28.4,29,29.88,10.0,SSE,18.4,25.3,N/A,,Clear,160,2013-04-06 20:15:00
4:34 PM,59.0,28.4,31,29.86,10.0,SSE,17.3,27.6,N/A,,Clear,160,2013-04-06 20:34:00
4:55 PM,60.8,30.2,31,29.85,10.0,SSE,17.3,26.5,N/A,,Clear,160,2013-04-06 20:55:00
5:15 PM,60.8,30.2,31,29.83,10.0,SSE,23.0,27.6,N/A,,Clear,160,2013-04-06 21:15:00
5:34 PM,59.0,30.2,34,29.82,10.0,South,20.7,29.9,N/A,,Clear,170,2013-04-06 21:34:00
5:55 PM,60.8,30.2,31,29.82,10.0,South,20.7,28.8,N/A,,Clear,170,2013-04-06 21:55:00
6:14 PM,60.8,30.2,31,29.82,10.0,South,17.3,26.5,N/A,,Clear,170,2013-04-06 22:14:00
6:35 PM,59.0,30.2,34,29.81,10.0,South,15.0,21.9,N/A,,Clear,170,2013-04-06 22:35:00
6:55 PM,59.0,30.2,34,29.81,10.0,South,18.4,27.6,N/A,,Clear,170,2013-04-06 22:55:00
7:14 PM,57.2,30.2,36,29.81,10.0,South,16.1,21.9,N/A,,Clear,170,2013-04-06 23:14:00
7:35 PM,57.2,30.2,36,29.81,10.0,SSE,15.0,18.4,N/A,,Clear,160,2013-04-06 23:35:00
7:55 PM,57.2,30.2,36,29.80,10.0,SSE,11.5,17.3,N/A,,Clear,160,2013-04-06 23:55:00
8:14 PM,57.2,30.2,36,29.79,10.0,SSE,13.8,18.4,N/A,,Clear,150,2013-04-07 00:14:00
8:35 PM,57.2,30.2,36,29.79,10.0,SSE,8.1,-,N/A,,Clear,160,2013-04-07 00:35:00
8:55 PM,57.2,30.2,36,29.78,10.0,SSE,12.7,-,N/A,,Clear,160,2013-04-07 00:55:00
9:14 PM,57.2,32.0,38,29.77,10.0,SSE,13.8,18.4,N/A,,Clear,160,2013-04-07 01:14:00
9:35 PM,57.2,32.0,38,29.74,10.0,SSE,15.0,-,N/A,,Scattered Clouds,150,2013-04-07 01:35:00
9:55 PM,57.2,32.0,38,29.76,10.0,South,12.7,18.4,N/A,,Scattered Clouds,170,2013-04-07 01:55:00
10:15 PM,57.2,33.8,41,29.75,10.0,South,13.8,18.4,N/A,,Scattered Clouds,180,2013-04-07 02:15:00
10:34 PM,59.0,33.8,39,29.75,10.0,South,13.8,24.2,N/A,,Scattered Clouds,180,2013-04-07 02:34:00
10:55 PM,59.0,33.8,39,29.74,10.0,South,13.8,-,N/A,,Mostly Cloudy,190,2013-04-07 02:55:00
11:15 PM,59.0,33.8,39,29.73,10.0,South,17.3,25.3,N/A,,Overcast,190,2013-04-07 03:15:00
11:34 PM,59.0,35.6,42,29.72,10.0,South,17.3,25.3,N/A,,Overcast,190,2013-04-07 03:34:00
11:55 PM,59.0,35.6,42,29.72,10.0,South,16.1,21.9,N/A,,Overcast,190,2013-04-07 03:55:00